Preview of NWS' New Version of Forecast
This preview is not operational and should not be used for support decisions.
Latest weather observations around

Hagerstown, Washington County Regional Airport (KHGR)

Using English Units (Switch to International System of Units)
Date/ Time (EDT) Wind (mph) Vis. (mi) Weather Sky Cond. Temp (°F) Rel. Humidity Wind Chill (°F) Heat Index (°F) Pressure Precip. (in)
Air Dwpt 6 hour Altimeter (inHg) Sea level (inHg) 1 hr 3 hr 6 hr
Max Min
Mar 26 15:53 N 7 10 Clear CLR 47 13     25% 44   30.29 30.33      
Mar 26 14:53 NNE 14 10 Clear CLR 46 13     26% 40   30.3 30.35      
Mar 26 13:53   10 Clear CLR 44 11     26%     30.32 30.36      
Mar 26 12:53 N 13 10 Clear CLR 42 11     28% 35   30.32 30.37      
Mar 26 11:53 N 14 10 Clear CLR 40 11     30% 32   30.33 30.37      
Mar 26 10:53 N 10 10 Clear CLR 38 11     32% 31   30.33 30.37      
Mar 26 09:53   10 Clear CLR 36 11     35%     30.32 30.36      
Mar 26 08:53 N 9 10 Clear CLR 35 12     38% 28   30.29 30.34      
Mar 26 07:53 N 13 10 Clear CLR 33 13     43% 24   30.25 30.3      
Mar 26 06:53 N 7 10 Clear CLR 31 17     56% 24   30.22 30.27      
Mar 26 05:53 N 5 10 Clear CLR 32 17     54% 27   30.2 30.24      
Mar 26 04:53 N 11 10 Clear CLR 34 17     50% 26   30.16 30.21      
Mar 26 03:53 NNE 14 10 Partly Cloudy SCT080 36 19     50% 27   30.15 30.19      
Mar 26 02:53 NNE 13 10 Partly Cloudy FEW060 SCT080 37 27     67% 29   30.13 30.17      
Mar 26 01:53 N 10 10 Cloudy OVC055 38 33     82% 31   30.11 30.15      
Mar 26 00:53 NNW 7 9 Cloudy OVC050 38 34     85% 33   30.11 30.15      
Mar 25 23:53 N 7 7 Cloudy OVC042 38 34     85% 33   30.1 30.14      
Mar 25 22:53 N 3 7 Cloudy SCT036 OVC043 38 34     85% 36   30.1 30.14      
Mar 25 22:24 N 7 7 Cloudy SCT025 OVC038 38 34     85% 33   30.09        
Mar 25 22:06 N 6 9 Cloudy BKN025 OVC040 38 34     85% 33   30.09        
Mar 25 21:53 N 10 10 Cloudy FEW029 OVC041 38 34     85% 31   30.08 30.12      
Mar 25 20:53 N 14 10 Cloudy OVC048 39 35     86% 31   30.07 30.11      
Mar 25 19:53 NNE 11 10 Cloudy SCT013 OVC060 40 35     83% 33   30.05 30.09     0
Mar 25 19:41 N 11 10 Cloudy BKN013 OVC060 40 35     83% 33   30.05        
Mar 25 19:21 N 13 8 Cloudy FEW024 OVC060 40 36     86% 32   30.05        
Mar 25 18:53 N 11 9 Cloudy BKN021 BKN050 OVC065 40 36     86% 33   30.04 30.08      
Mar 25 18:45 N 14 8 Cloudy BKN021 OVC050 40 36     86% 32   30.04        
Mar 25 18:00 N 13 7 Cloudy OVC046 41 37     86% 34   30.03        
Mar 25 17:53 N 14 6 Fog/Mist SCT012 BKN025 OVC044 42 38     85% 35   30.04 30.07 0    
Mar 25 17:00 N 14 5 Light Rain SCT012 BKN025 OVC044 43 38     82% 36   30.03   0    
Mar 25 16:53 NNE 14 4 Light Rain and Fog/Mist OVC010 43 39     86% 36   30.03 30.06 0 0  
Mar 25 15:53 N 10 4 Light Rain OVC011 45 40     82% 40   30.04 30.07 0    
Mar 25 15:40 N 11 3 Light Rain and Fog/Mist FEW008 OVC013 45 41     86% 39   30.04   0    
Mar 25 15:26 N 5 4 Light Rain BKN014 OVC060 47 42     83% 45   30.04   0    
Mar 25 14:53 NE 11 5 Light Rain BKN049 OVC060 48 42     80% 43   30.01 30.04 0    
Mar 25 13:53 NNE 14 7 Light Rain BKN060 OVC070 49 44     83% 44   30.03 30.06 0   0
Mar 25 12:53 N 8 4 Light Rain OVC047 48 42     80% 44   30.06 30.1 0    
Mar 25 11:53 NW 7 10 Light Rain SCT035 OVC060 52 39     61%     30.06 30.09 0    
Mar 25 10:53 N 9 10 Mostly Cloudy BKN035 BKN060 BKN090 53 35     50%     30.03 30.06      
Mar 25 09:53 NNE 8 10 Clear CLR 53 36     52%     30.03 30.06      
Mar 25 08:53 N 3 10 Cloudy OVC085 53 37     54%     30.02 30.05      
Mar 25 07:53 NNW 5 10 Clear   51 38     61%     30.02 30.05      
Mar 25 06:53 N 3 10 Cloudy BKN041 OVC055 52 37     57%     30.01 30.03 0    
Mar 25 05:53 N 6 10 Light Rain BKN050 OVC060 51 35     54%     30.02 30.05 0    
Mar 25 04:53 N 6 10 Cloudy OVC055 52 34     50%     30.01 30.04 0 0  
Mar 25 03:53 N 6 10 Cloudy OVC065 54 28     37%     30.02 30.05      
Mar 25 02:53 N 3 10 Cloudy OVC070 52 27     38%     30.04 30.07      
Mar 25 01:53 Calm 10 Cloudy OVC085 53 26     35%     30.05 30.07      
Mar 25 00:53 Calm 10 Cloudy OVC100 54 21     27%     30.07 30.09      
Mar 24 23:53 Calm 10 Cloudy BKN070 OVC095 55 22     27%     30.07 30.1      
Mar 24 22:53 SE 3 10 Cloudy BKN100 OVC120 54 20     26%     30.07 30.1      
Mar 24 21:53 Calm 10 Clear CLR 57        %     30.07 30.11      
Mar 24 20:53 Calm 10 Clear CLR 57 17     21%     30.08 30.11      
Mar 24 19:53 SSE 3 10 Clear CLR 56 20     24%     30.07 30.1      
Mar 24 18:53 W 3 10 Clear CLR 60 18     19%     30.07 30.11      
Mar 24 17:53 SSW 6 10 Clear CLR 62 16     16%     30.06 30.1      
Mar 24 16:53 S 7 10 Clear CLR 61 16     17%     30.07 30.1      
Mar 24 15:53 S 10 10 Clear CLR 62 14     15%     30.06 30.09      
Mar 24 14:53 S 7 10 Clear CLR 62 13     14%     30.08 30.11      
Mar 24 13:53 S 7 10 Clear CLR 60 15     17%     30.14 30.17      
Mar 24 12:53 5 10 Clear CLR 58 15     18%     30.2 30.24      
Mar 24 11:53 SW 10 10 Clear CLR 55 15     20%     30.23 30.27      
Mar 24 10:53 SW 9 10 Clear CLR 51 18     27%     30.25 30.29      
Mar 24 09:53 S 7 10 Clear CLR 46 18     32% 42   30.27 30.31      
Mar 24 08:53 S 8 10 Clear CLR 43 19     38% 38   30.27 30.31      
Mar 24 07:53 SSE 5 10 Clear CLR 38 17     42% 34   30.26 30.3      
Mar 24 06:53 S 5 10 Clear CLR 37 16     42% 33   30.26 30.3      
Mar 24 05:53 S 5 10 Clear CLR 38 15     39% 34   30.25 30.29      
Mar 24 04:53 WSW 6 10 Clear CLR 42 14     32% 38   30.24 30.27      
Notice The following observation data may not be complete
Mar 24 03:53 SW 6 10 Clear CLR   14      %     30.23 30.27      
Mar 24 02:53 S 5 10 Clear CLR 38 16     40% 34   30.24 30.28      
Mar 24 01:53 Calm 10 Clear CLR 39 16     39%     30.24 30.28      
Mar 24 00:53 Calm 10 Clear CLR 42 15     33%     30.24 30.28      
Mar 23 23:53 WNW 10 10 Clear CLR 41 16     36% 35   30.24 30.28      
Mar 23 22:53 W 9 10 Clear CLR 43 16     33% 38   30.23 30.28      
Mar 23 21:53 WNW 10 10 Clear CLR 41 16     36% 35   30.23 30.27      
Mar 23 20:53 WNW 11 10 Clear CLR 43 17     35% 37   30.22 30.27      
Mar 23 19:53 WNW 14 10 Clear CLR 45 16     31% 39   30.2 30.25      
Mar 23 18:53 NW 15 10 Clear CLR 48 16     27% 42   30.19 30.23      
Mar 23 17:53   10 Clear CLR 50 16     26%     30.17 30.22      
Mar 23 16:53 WNW 16 10 Clear CLR 51 16     24%     30.15 30.19      
Mar 23 15:53   10 Clear CLR 50 15     25%     30.14 30.19      
May 15 02:07 S 7 10 Cloudy BKN055 OVC065 66 63     90%     29.96        
May 14 18:53 SSW 7 5 Light Rain and Fog/Mist FEW090 OVC110 72 68     87%   73 29.95 29.96 0    
May 13 23:01 Calm 5 Light Rain and Fog/Mist SCT007 BKN019 OVC110 60 59     96%     30.03   0    
May 13 03:46 NNE 5 2 Rain and Fog/Mist SCT008 BKN029 OVC049 63 62     97%     30.07   0    
May 13 03:18 NW 8 2 Thunderstorms and Rain and Fog/Mist FEW007 BKN031 OVC042 63 62     97%     30.08   0    
May 12 18:53 N 15 5 Light Rain FEW075 BKN090 OVC120 71 63     76%   71   30.02 0    
May 12 15:53 S 9 10 Clear CLR 86 63     46%   87 29.93 29.95      
May 12 08:53 NW 3 10 Clear CLR 59 52     78%     30.1 30.12      
May 12 03:53 NNW 13 10 Clear   59 47     64%     30.04 30.06      
May 12 00:53 NW 6 10 Mostly Clear FEW075 61 51     70%     30.05 30.07      
Jun 11 15:53 W 13 10 Clear CLR 91 60     36%   91 30.09 30.1      
Jun 11 12:53 WSW 13 10 Clear CLR 88 62     42%   88 30.12 30.13      
Jun 11 03:53 S 7 10 Clear CLR 70 60     71%     30.08 30.08      
Jun 08 13:53 NE 7 10 Mostly Cloudy BKN060 74 46     37%   73 29.94 29.96